Total_Precipitation_Accumulation
1.17 1.20 1.68 2.39 2.24 1.49 1.10 0.73 0.41 0.44 0.42 0.23 0.14 0.14 0.32 0.61 0.77 0.95 0.75 0.52 0.34 0.29 0.30 0.44 0.59 0.55 0.47 0.41 0.37 0.36 0.39 0.39 0.34 0.32 0.31 0.26 0.21 0.20 0.20 0.18 0.15 0.15 0.17 0.17 0.19 0.24 0.30 0.36 0.43
1.04 1.64 2.27 2.69 1.95 1.28 1.17 0.79 0.54 0.38 0.27 0.18 0.15 0.12 0.21 0.26 0.25 0.42 0.83 0.85 0.39 0.35 0.35 0.42 0.63 0.64 0.59 0.51 0.47 0.47 0.47 0.44 0.39 0.34 0.31 0.28 0.24 0.22 0.24 0.21 0.18 0.17 0.19 0.22 0.23 0.24 0.29 0.36 0.44
1.36 2.12 2.69 2.35 1.48 1.21 1.23 0.80 0.53 0.29 0.18 0.17 0.17 0.13 0.19 0.26 0.33 0.57 0.83 0.65 0.38 0.34 0.37 0.53 0.72 0.68 0.68 0.61 0.57 0.57 0.54 0.50 0.44 0.39 0.36 0.35 0.32 0.27 0.27 0.25 0.23 0.25 0.26 0.28 0.29 0.28 0.33 0.38 0.39
1.57 2.20 2.22 1.67 1.24 1.00 0.82 0.63 0.37 0.27 0.19 0.11 0.12 0.16 0.16 0.22 0.40 0.63 0.58 0.42 0.40 0.39 0.40 0.54 0.67 0.64 0.65 0.64 0.65 0.68 0.58 0.54 0.48 0.42 0.42 0.43 0.39 0.35 0.34 0.35 0.37 0.36 0.38 0.36 0.37 0.37 0.40 0.41 0.41
1.77 2.05 1.78 1.30 1.23 0.93 0.65 0.47 0.32 0.32 0.26 0.15 0.10 0.22 0.27 0.30 0.42 0.56 0.60 0.49 0.48 0.48 0.42 0.44 0.55 0.57 0.64 0.62 0.59 0.68 0.66 0.64 0.53 0.46 0.44 0.44 0.42 0.43 0.43 0.47 0.49 0.50 0.50 0.46 0.46 0.46 0.42 0.42 0.47
1.78 1.71 1.47 1.25 1.27 1.07 0.89 0.61 0.42 0.41 0.29 0.15 0.13 0.26 0.32 0.37 0.52 0.59 0.64 0.66 0.63 0.60 0.50 0.42 0.49 0.56 0.61 0.62 0.68 0.81 0.81 0.73 0.59 0.49 0.49 0.49 0.51 0.50 0.50 0.51 0.51 0.57 0.63 0.61 0.55 0.53 0.45 0.45 0.50
1.88 1.63 1.26 0.97 1.08 1.31 1.04 0.74 0.59 0.47 0.33 0.22 0.15 0.29 0.35 0.38 0.47 0.56 0.66 0.76 0.87 0.87 0.73 0.58 0.56 0.60 0.70 0.78 0.82 0.94 0.98 0.90 0.72 0.58 0.58 0.58 0.54 0.50 0.49 0.54 0.55 0.57 0.61 0.63 0.60 0.58 0.52 0.51 0.51
1.61 1.46 1.10 1.04 1.14 1.33 1.05 0.73 0.54 0.41 0.34 0.24 0.19 0.32 0.49 0.44 0.48 0.57 0.64 0.78 0.88 0.93 0.88 0.79 0.74 0.75 0.82 0.88 1.02 1.11 1.21 1.31 1.07 0.78 0.69 0.65 0.55 0.50 0.52 0.53 0.56 0.60 0.68 0.67 0.65 0.65 0.60 0.61 0.57
1.56 1.57 1.33 1.46 1.40 0.99 0.76 0.71 0.47 0.30 0.26 0.24 0.21 0.24 0.32 0.39 0.43 0.52 0.59 0.65 0.66 0.68 0.72 0.77 0.80 0.86 0.86 0.82 0.89 1.11 1.29 1.46 1.20 0.83 0.85 0.77 0.55 0.55 0.60 0.60 0.71 0.76 0.80 0.81 0.80 0.81 0.79 0.76 0.67
1.57 1.42 1.24 1.22 1.03 0.82 0.68 0.61 0.44 0.33 0.29 0.23 0.24 0.26 0.31 0.36 0.45 0.50 0.51 0.56 0.54 0.55 0.52 0.54 0.57 0.66 0.73 0.72 0.93 1.18 1.22 1.34 1.09 0.92 0.95 0.92 0.97 0.90 0.70 0.69 0.87 0.97 1.02 0.97 0.95 0.98 0.90 0.77 0.59
1.23 1.17 0.89 0.70 0.54 0.52 0.49 0.41 0.31 0.31 0.31 0.23 0.23 0.28 0.34 0.38 0.41 0.44 0.46 0.46 0.44 0.43 0.40 0.39 0.41 0.44 0.53 0.74 0.98 1.20 1.25 1.29 1.33 1.36 1.22 1.20 1.16 0.96 0.79 0.75 0.80 0.86 0.94 0.89 0.98 0.98 0.83 0.72 0.58
1.13 0.95 0.77 0.64 0.43 0.38 0.34 0.28 0.28 0.27 0.26 0.20 0.21 0.25 0.34 0.40 0.38 0.37 0.41 0.45 0.48 0.46 0.44 0.38 0.30 0.31 0.39 0.53 0.75 1.03 1.10 1.16 1.24 1.24 1.04 1.13 1.13 0.95 0.89 0.97 1.00 0.97 0.94 1.06 1.10 1.05 0.98 0.81 0.63
1.10 0.90 0.69 0.46 0.36 0.34 0.34 0.32 0.25 0.21 0.21 0.19 0.21 0.29 0.39 0.44 0.40 0.33 0.33 0.38 0.44 0.53 0.61 0.59 0.43 0.37 0.39 0.45 0.50 0.64 0.74 0.85 1.13 1.21 0.95 0.93 0.95 0.99 1.02 0.93 1.06 1.12 1.12 1.12 1.10 1.01 0.95 0.91 0.79
0.98 0.75 0.54 0.41 0.37 0.32 0.33 0.31 0.23 0.24 0.23 0.20 0.21 0.28 0.38 0.44 0.44 0.40 0.36 0.34 0.33 0.36 0.49 0.57 0.55 0.54 0.52 0.45 0.40 0.40 0.46 0.59 0.74 0.76 0.72 0.75 0.78 0.87 1.04 0.97 0.96 1.03 1.21 1.26 1.19 1.09 1.09 1.05 0.86
0.64 0.58 0.56 0.48 0.41 0.39 0.38 0.36 0.20 0.20 0.21 0.17 0.15 0.18 0.23 0.28 0.33 0.37 0.34 0.27 0.26 0.26 0.32 0.42 0.50 0.56 0.58 0.59 0.58 0.48 0.47 0.54 0.56 0.56 0.62 0.69 0.69 0.82 0.98 0.93 0.84 0.82 0.97 1.15 1.26 1.28 1.20 1.05 0.93
0.66 0.60 0.76 0.59 0.53 0.50 0.46 0.35 0.14 0.17 0.15 0.12 0.10 0.11 0.14 0.16 0.18 0.24 0.28 0.28 0.25 0.25 0.25 0.31 0.36 0.43 0.53 0.62 0.69 0.66 0.62 0.58 0.52 0.49 0.47 0.50 0.52 0.61 0.79 0.86 0.77 0.76 0.92 1.13 1.27 1.34 1.35 1.20 1.13
0.76 0.69 0.65 0.58 0.47 0.39 0.29 0.20 0.12 0.11 0.09 0.07 0.06 0.06 0.07 0.09 0.11 0.13 0.16 0.20 0.24 0.25 0.23 0.24 0.28 0.33 0.40 0.51 0.58 0.58 0.57 0.54 0.52 0.52 0.41 0.39 0.41 0.53 0.72 0.90 0.92 0.93 1.02 1.12 1.18 1.33 1.35 1.34 1.23
0.51 0.42 0.42 0.35 0.30 0.24 0.18 0.12 0.09 0.07 0.04 0.04 0.04 0.05 0.05 0.03 0.05 0.08 0.10 0.15 0.23 0.24 0.24 0.24 0.26 0.27 0.31 0.36 0.43 0.48 0.46 0.44 0.50 0.49 0.47 0.51 0.58 0.65 0.83 1.05 1.13 1.24 1.25 1.26 1.40 1.65 1.60 1.39 1.33
0.40 0.24 0.19 0.17 0.14 0.12 0.09 0.06 0.05 0.04 0.02 0.02 0.02 0.02 0.02 0.02 0.03 0.03 0.03 0.06 0.14 0.18 0.18 0.19 0.24 0.26 0.25 0.24 0.29 0.34 0.35 0.44 0.51 0.59 0.64 0.69 0.72 0.79 1.00 1.21 1.43 1.55 1.41 1.38 1.55 1.78 1.89 1.66 1.49
0.39 0.25 0.17 0.16 0.10 0.05 0.05 0.04 0.03 0.03 0.02 0.01 0.01 0.01 0.02 0.02 0.02 0.02 0.01 0.01 0.02 0.05 0.09 0.13 0.15 0.17 0.17 0.18 0.23 0.32 0.39 0.45 0.58 0.74 0.85 0.87 0.85 0.90 0.95 1.15 1.35 1.41 1.43 1.44 1.52 1.67 1.92 1.82 1.62
0.21 0.16 0.13 0.14 0.07 0.03 0.04 0.04 0.03 0.03 0.02 0.02 0.02 0.03 0.03 0.03 0.03 0.03 0.02 0.02 0.02 0.02 0.03 0.07 0.11 0.14 0.14 0.22 0.41 0.68 0.92 1.01 1.02 1.04 1.19 1.28 1.24 1.19 1.16 1.19 1.32 1.40 1.51 1.50 1.52 1.53 1.70 1.80 1.71
0.17 0.09 0.07 0.07 0.06 0.04 0.04 0.04 0.03 0.05 0.06 0.06 0.06 0.07 0.07 0.08 0.07 0.05 0.04 0.03 0.03 0.03 0.03 0.04 0.09 0.15 0.18 0.35 0.68 1.07 1.39 1.48 1.49 1.61 1.65 1.71 1.63 1.50 1.47 1.47 1.56 1.50 1.47 1.42 1.42 1.43 1.55 1.80 1.80
0.18 0.11 0.06 0.04 0.04 0.05 0.03 0.03 0.04 0.08 0.13 0.16 0.16 0.17 0.18 0.15 0.12 0.08 0.07 0.06 0.08 0.10 0.11 0.14 0.20 0.34 0.50 0.65 0.83 1.13 1.32 1.44 1.58 1.74 1.88 1.99 2.11 2.08 2.00 1.92 1.77 1.59 1.50 1.48 1.51 1.50 1.54 1.61 1.67
0.14 0.09 0.05 0.03 0.02 0.04 0.03 0.04 0.09 0.16 0.21 0.24 0.25 0.25 0.24 0.19 0.13 0.10 0.10 0.11 0.16 0.24 0.27 0.31 0.41 0.51 0.58 0.70 0.84 0.98 1.07 1.23 1.43 1.58 1.75 1.88 2.00 2.03 1.97 1.84 1.61 1.44 1.37 1.42 1.52 1.53 1.54 1.53 1.56
0.07 0.06 0.06 0.07 0.07 0.06 0.04 0.07 0.16 0.17 0.17 0.20 0.21 0.18 0.15 0.15 0.15 0.14 0.13 0.19 0.24 0.33 0.37 0.44 0.52 0.62 0.65 0.73 0.83 0.91 0.97 1.10 1.27 1.32 1.36 1.38 1.38 1.42 1.45 1.45 1.41 1.35 1.29 1.35 1.52 1.59 1.60 1.60 1.56
0.03 0.03 0.08 0.13 0.11 0.08 0.05 0.14 0.24 0.16 0.10 0.08 0.10 0.11 0.12 0.18 0.21 0.20 0.20 0.27 0.33 0.41 0.52 0.60 0.68 0.70 0.72 0.80 0.89 0.90 0.99 1.11 1.20 1.15 1.10 1.12 1.16 1.24 1.25 1.32 1.32 1.31 1.32 1.32 1.38 1.48 1.60 1.62 1.55
0.02 0.01 0.02 0.04 0.02 0.03 0.06 0.16 0.15 0.07 0.05 0.05 0.09 0.15 0.20 0.27 0.30 0.31 0.33 0.38 0.41 0.50 0.61 0.68 0.73 0.75 0.82 0.86 0.94 1.08 1.12 1.13 1.10 1.00 0.94 0.96 0.92 0.93 1.04 1.14 1.20 1.16 1.17 1.21 1.29 1.41 1.47 1.55 1.62
0.01 0.02 0.02 0.04 0.04 0.08 0.12 0.16 0.13 0.09 0.10 0.12 0.17 0.24 0.35 0.44 0.45 0.47 0.53 0.56 0.56 0.57 0.65 0.73 0.80 0.87 0.89 0.92 1.02 1.20 1.14 0.91 0.76 0.66 0.70 0.74 0.78 0.82 0.89 0.86 0.82 0.81 0.86 0.89 0.98 1.15 1.23 1.27 1.36
0.05 0.03 0.02 0.02 0.03 0.14 0.30 0.43 0.46 0.45 0.38 0.42 0.42 0.49 0.63 0.68 0.69 0.69 0.70 0.72 0.66 0.67 0.73 0.78 0.83 0.94 0.97 0.93 1.03 1.06 0.85 0.61 0.49 0.47 0.45 0.44 0.47 0.52 0.60 0.55 0.52 0.58 0.62 0.59 0.67 0.78 0.88 0.97 1.01
0.07 0.06 0.03 0.05 0.07 0.16 0.34 0.54 0.65 0.70 0.68 0.79 0.85 0.96 0.89 0.83 0.83 0.77 0.70 0.68 0.57 0.58 0.67 0.75 0.84 0.90 0.84 0.80 0.79 0.65 0.47 0.37 0.34 0.30 0.25 0.22 0.22 0.22 0.29 0.32 0.32 0.40 0.51 0.52 0.58 0.62 0.64 0.71 0.75